Time,TemperatureF,DewpointF,PressureIn,WindDirection,WindDirectionDegrees,WindSpeedMPH,WindSpeedGustMPH,Humidity,HourlyPrecipIn,Conditions,Clouds,dailyrainin,SoftwareType,DateUTC
2013-05-05 00:01:00,46.4,29.8,30.36,NE,34,0.0,0.0,52,0.00,,---,0.00,VWS V14.01,2013-05-05 04:01:00,
2013-05-05 00:02:00,46.4,30.2,30.36,North,1,0.0,0.0,53,0.00,,---,0.00,VWS V14.01,2013-05-05 04:02:00,
2013-05-05 00:04:00,46.4,30.2,30.36,NNE,17,0.0,0.0,53,0.00,,---,0.00,VWS V14.01,2013-05-05 04:04:00,
2013-05-05 00:07:00,46.4,30.2,30.36,NE,51,0.0,0.0,53,0.00,,---,0.00,VWS V14.01,2013-05-05 04:07:00,
2013-05-05 00:12:00,46.2,30.0,30.33,NNE,27,0.0,0.0,53,0.00,,---,0.00,VWS V14.01,2013-05-05 04:12:00,
2013-05-05 00:18:00,46.2,30.0,30.33,NNE,20,0.0,0.0,53,0.00,,---,0.00,VWS V14.01,2013-05-05 04:18:00,
2013-05-05 00:21:00,46.2,30.0,30.33,NNW,341,0.0,0.0,53,0.00,,---,0.00,VWS V14.01,2013-05-05 04:21:00,
2013-05-05 00:27:00,46.2,30.5,30.33,NNE,13,0.0,0.0,54,0.00,,---,0.00,VWS V14.01,2013-05-05 04:27:00,
2013-05-05 00:33:00,46.2,30.5,30.33,NNE,26,0.0,0.0,54,0.00,,---,0.00,VWS V14.01,2013-05-05 04:33:00,
2013-05-05 00:38:00,46.0,30.3,30.33,NNE,17,0.0,0.0,54,0.00,,---,0.00,VWS V14.01,2013-05-05 04:38:00,
2013-05-05 00:43:00,46.0,30.3,30.33,NNE,32,0.0,0.0,54,0.00,,---,0.00,VWS V14.01,2013-05-05 04:43:00,
2013-05-05 00:48:00,46.0,30.3,30.33,NNE,20,0.0,0.0,54,0.00,,---,0.00,VWS V14.01,2013-05-05 04:48:00,
2013-05-05 00:54:00,46.2,31.0,30.33,NNE,12,0.0,0.0,55,0.00,,---,0.00,VWS V14.01,2013-05-05 04:54:00,
2013-05-05 01:00:00,46.2,31.0,30.33,ENE,78,0.0,0.0,55,0.00,,---,0.00,VWS V14.01,2013-05-05 05:00:00,
2013-05-05 01:05:00,46.4,31.1,30.33,NE,50,0.0,0.0,55,0.00,,---,0.00,VWS V14.01,2013-05-05 05:05:00,
2013-05-05 01:11:00,46.4,31.1,30.33,East,79,0.0,0.0,55,0.00,,---,0.00,VWS V14.01,2013-05-05 05:11:00,
2013-05-05 01:16:00,46.4,31.1,30.33,ENE,57,0.0,0.0,55,0.00,,---,0.00,VWS V14.01,2013-05-05 05:16:00,
2013-05-05 01:22:00,46.6,31.3,30.33,North,7,0.0,0.0,55,0.00,,---,0.00,VWS V14.01,2013-05-05 05:22:00,
2013-05-05 01:28:00,46.4,31.1,30.33,East,79,0.0,0.0,55,0.00,,---,0.00,VWS V14.01,2013-05-05 05:28:00,
2013-05-05 01:33:00,46.4,31.1,30.33,North,11,0.0,0.0,55,0.00,,---,0.00,VWS V14.01,2013-05-05 05:33:00,
2013-05-05 01:39:00,46.6,31.3,30.30,NE,44,0.0,0.0,55,0.00,,---,0.00,VWS V14.01,2013-05-05 05:39:00,
2013-05-05 01:44:00,46.6,31.3,30.30,North,8,0.0,0.0,55,0.00,,---,0.00,VWS V14.01,2013-05-05 05:44:00,
2013-05-05 01:50:00,46.6,31.3,30.30,North,9,0.0,0.0,55,0.00,,---,0.00,VWS V14.01,2013-05-05 05:50:00,
2013-05-05 01:56:00,46.6,31.3,30.30,NNE,17,0.0,0.0,55,0.00,,---,0.00,VWS V14.01,2013-05-05 05:56:00,
2013-05-05 02:01:00,46.6,31.3,30.30,NE,34,0.0,0.0,55,0.00,,---,0.00,VWS V14.01,2013-05-05 06:01:00,
2013-05-05 02:06:00,46.4,31.1,30.30,NNW,346,0.0,0.0,55,0.00,,---,0.00,VWS V14.01,2013-05-05 06:06:00,
2013-05-05 02:11:00,46.4,31.1,30.30,NE,36,0.0,0.0,55,0.00,,---,0.00,VWS V14.01,2013-05-05 06:11:00,
2013-05-05 02:17:00,46.4,31.1,30.30,NE,51,0.0,0.0,55,0.00,,---,0.00,VWS V14.01,2013-05-05 06:17:00,
2013-05-05 02:22:00,46.6,31.3,30.30,NNE,18,0.0,0.0,55,0.00,,---,0.00,VWS V14.01,2013-05-05 06:22:00,
2013-05-05 02:28:00,46.6,31.7,30.30,NE,40,0.0,0.0,56,0.00,,---,0.00,VWS V14.01,2013-05-05 06:28:00,
2013-05-05 02:33:00,46.6,31.7,30.30,North,1,0.0,0.0,56,0.00,,---,0.00,VWS V14.01,2013-05-05 06:33:00,
2013-05-05 02:38:00,46.6,31.7,30.30,NE,38,0.0,0.0,56,0.00,,---,0.00,VWS V14.01,2013-05-05 06:38:00,
2013-05-05 02:43:00,46.6,31.7,30.30,NNE,29,0.0,0.0,56,0.00,,---,0.00,VWS V14.01,2013-05-05 06:43:00,
2013-05-05 02:49:00,46.6,31.7,30.30,ENE,73,0.0,0.0,56,0.00,,---,0.00,VWS V14.01,2013-05-05 06:49:00,
2013-05-05 02:54:00,46.6,31.7,30.30,ENE,71,0.0,0.0,56,0.00,,---,0.00,VWS V14.01,2013-05-05 06:54:00,
2013-05-05 03:00:00,46.8,32.3,30.30,NNE,20,0.0,0.0,57,0.00,,---,0.00,VWS V14.01,2013-05-05 07:00:00,
2013-05-05 03:06:00,46.8,32.3,30.30,East,99,0.0,0.0,57,0.00,,---,0.00,VWS V14.01,2013-05-05 07:06:00,
2013-05-05 03:11:00,46.6,32.2,30.30,ENE,73,0.0,0.0,57,0.00,,---,0.00,VWS V14.01,2013-05-05 07:11:00,
2013-05-05 03:17:00,46.8,32.3,30.30,ENE,57,0.0,0.0,57,0.00,,---,0.00,VWS V14.01,2013-05-05 07:17:00,
2013-05-05 03:22:00,46.8,32.3,30.30,SE,130,0.0,0.0,57,0.00,,---,0.00,VWS V14.01,2013-05-05 07:22:00,
2013-05-05 03:28:00,46.6,32.2,30.30,NNE,32,0.0,0.0,57,0.00,,---,0.00,VWS V14.01,2013-05-05 07:28:00,
2013-05-05 03:34:00,46.8,32.3,30.30,NNE,23,0.0,0.0,57,0.00,,---,0.00,VWS V14.01,2013-05-05 07:34:00,
2013-05-05 03:39:00,46.8,32.8,30.30,North,1,0.0,0.0,58,0.00,,---,0.00,VWS V14.01,2013-05-05 07:39:00,
2013-05-05 03:45:00,46.6,32.6,30.30,East,86,0.0,0.0,58,0.00,,---,0.00,VWS V14.01,2013-05-05 07:45:00,
2013-05-05 03:50:00,46.8,32.8,30.30,NE,41,0.0,0.0,58,0.00,,---,0.00,VWS V14.01,2013-05-05 07:50:00,
2013-05-05 03:56:00,46.6,32.6,30.30,North,353,0.0,0.0,58,0.00,,---,0.00,VWS V14.01,2013-05-05 07:56:00,
2013-05-05 04:02:00,46.6,32.6,30.30,NNE,19,0.0,0.0,58,0.00,,---,0.00,VWS V14.01,2013-05-05 08:02:00,
2013-05-05 04:07:00,46.6,32.6,30.30,NW,305,0.0,0.0,58,0.00,,---,0.00,VWS V14.01,2013-05-05 08:07:00,
2013-05-05 04:13:00,46.6,32.6,30.30,NNE,23,0.0,0.0,58,0.00,,---,0.00,VWS V14.01,2013-05-05 08:13:00,
2013-05-05 04:18:00,46.6,32.2,30.30,NNE,33,0.0,0.0,57,0.00,,---,0.00,VWS V14.01,2013-05-05 08:18:00,
2013-05-05 04:24:00,46.6,32.2,30.30,ENE,57,0.0,0.0,57,0.00,,---,0.00,VWS V14.01,2013-05-05 08:24:00,
2013-05-05 04:29:00,46.6,32.2,30.30,ENE,60,0.0,0.0,57,0.00,,---,0.00,VWS V14.01,2013-05-05 08:29:00,
2013-05-05 04:35:00,46.6,32.2,30.30,NE,35,0.0,0.0,57,0.00,,---,0.00,VWS V14.01,2013-05-05 08:35:00,
2013-05-05 04:41:00,46.6,32.2,30.30,NE,39,0.0,0.0,57,0.00,,---,0.00,VWS V14.01,2013-05-05 08:41:00,
2013-05-05 04:46:00,46.6,32.2,30.30,NNE,30,0.0,0.0,57,0.00,,---,0.00,VWS V14.01,2013-05-05 08:46:00,
2013-05-05 04:52:00,46.6,32.2,30.30,ENE,60,0.0,0.0,57,0.00,,---,0.00,VWS V14.01,2013-05-05 08:52:00,
2013-05-05 04:58:00,46.4,32.0,30.27,ENE,72,0.0,0.0,57,0.00,,---,0.00,VWS V14.01,2013-05-05 08:58:00,
2013-05-05 05:03:00,46.4,32.0,30.27,NNE,24,0.0,0.0,57,0.00,,---,0.00,VWS V14.01,2013-05-05 09:03:00,
2013-05-05 05:09:00,46.4,32.0,30.27,ENE,62,0.0,0.0,57,0.00,,---,0.00,VWS V14.01,2013-05-05 09:09:00,
2013-05-05 05:14:00,46.4,32.0,30.27,NNE,16,0.0,0.0,57,0.00,,---,0.00,VWS V14.01,2013-05-05 09:14:00,
2013-05-05 05:20:00,46.4,32.4,30.27,NNE,30,0.0,0.0,58,0.00,,---,0.00,VWS V14.01,2013-05-05 09:20:00,
2013-05-05 05:26:00,46.4,32.4,30.27,NNE,18,0.0,0.0,58,0.00,,---,0.00,VWS V14.01,2013-05-05 09:26:00,
2013-05-05 05:31:00,46.6,32.6,30.27,NNW,339,0.0,0.0,58,0.00,,---,0.00,VWS V14.01,2013-05-05 09:31:00,
2013-05-05 05:37:00,46.8,33.2,30.27,SE,143,0.0,0.0,59,0.00,,---,0.00,VWS V14.01,2013-05-05 09:37:00,
2013-05-05 05:42:00,46.8,33.2,30.27,NE,38,0.0,0.0,59,0.00,,---,0.00,VWS V14.01,2013-05-05 09:42:00,
2013-05-05 05:48:00,46.8,33.2,30.27,NE,56,0.0,0.0,59,0.00,,---,0.00,VWS V14.01,2013-05-05 09:48:00,
2013-05-05 05:54:00,46.9,33.4,30.27,WNW,300,0.0,0.0,59,0.00,,---,0.00,VWS V14.01,2013-05-05 09:54:00,
2013-05-05 06:00:00,46.9,33.4,30.27,NE,38,0.0,0.0,59,0.00,,---,0.00,VWS V14.01,2013-05-05 10:00:00,
2013-05-05 06:06:00,46.9,33.4,30.27,North,8,0.0,0.0,59,0.00,,---,0.00,VWS V14.01,2013-05-05 10:06:00,
2013-05-05 06:12:00,47.1,33.5,30.27,North,357,0.0,0.0,59,0.00,,---,0.00,VWS V14.01,2013-05-05 10:12:00,
2013-05-05 06:17:00,47.3,34.1,30.27,North,10,0.0,0.0,60,0.00,,---,0.00,VWS V14.01,2013-05-05 10:17:00,
2013-05-05 06:23:00,47.7,34.5,30.27,East,85,0.0,0.0,60,0.00,,---,0.00,VWS V14.01,2013-05-05 10:23:00,
2013-05-05 06:28:00,48.0,34.8,30.30,East,83,0.0,0.0,60,0.00,,---,0.00,VWS V14.01,2013-05-05 10:28:00,
2013-05-05 06:34:00,48.2,34.6,30.30,NNE,26,0.0,0.0,59,0.00,,---,0.00,VWS V14.01,2013-05-05 10:34:00,
2013-05-05 06:40:00,48.4,34.3,30.30,ENE,58,0.0,0.0,58,0.00,,---,0.00,VWS V14.01,2013-05-05 10:40:00,
2013-05-05 06:45:00,48.6,34.0,30.30,NNW,339,0.0,0.0,57,0.00,,---,0.00,VWS V14.01,2013-05-05 10:45:00,
2013-05-05 06:51:00,48.6,33.6,30.30,North,357,0.0,0.0,56,0.00,,---,0.00,VWS V14.01,2013-05-05 10:51:00,
2013-05-05 06:57:00,48.7,32.8,30.30,NNW,343,0.0,0.0,54,0.00,,---,0.00,VWS V14.01,2013-05-05 10:57:00,
2013-05-05 07:02:00,48.7,32.4,30.30,East,95,0.0,0.0,53,0.00,,---,0.00,VWS V14.01,2013-05-05 11:02:00,
2013-05-05 07:08:00,48.9,32.1,30.30,ENE,68,0.0,0.0,52,0.00,,---,0.00,VWS V14.01,2013-05-05 11:08:00,
2013-05-05 07:13:00,49.1,32.2,30.27,ESE,120,0.0,0.0,52,0.00,,---,0.00,VWS V14.01,2013-05-05 11:13:00,
2013-05-05 07:18:00,49.1,31.8,30.27,East,82,0.0,0.0,51,0.00,,---,0.00,VWS V14.01,2013-05-05 11:18:00,
2013-05-05 07:23:00,49.3,31.5,30.27,NNE,21,0.0,0.0,50,0.00,,---,0.00,VWS V14.01,2013-05-05 11:23:00,
2013-05-05 07:29:00,49.5,31.1,30.30,ENE,74,0.0,0.0,49,0.00,,---,0.00,VWS V14.01,2013-05-05 11:29:00,
2013-05-05 07:34:00,50.0,31.6,30.30,NE,49,0.0,0.0,49,0.00,,---,0.00,VWS V14.01,2013-05-05 11:34:00,
2013-05-05 07:40:00,50.4,30.9,30.30,East,93,0.0,0.0,47,0.00,,---,0.00,VWS V14.01,2013-05-05 11:40:00,
2013-05-05 07:46:00,50.4,29.8,30.30,ESE,109,0.0,0.0,45,0.00,,---,0.00,VWS V14.01,2013-05-05 11:46:00,
2013-05-05 07:51:00,50.9,29.2,30.30,ENE,74,0.0,0.0,43,0.00,,---,0.00,VWS V14.01,2013-05-05 11:51:00,
2013-05-05 07:57:00,51.4,29.7,30.30,East,91,0.0,0.0,43,0.00,,---,0.00,VWS V14.01,2013-05-05 11:57:00,
2013-05-05 08:03:00,51.8,29.5,30.30,NE,52,0.0,0.0,42,0.00,,---,0.00,VWS V14.01,2013-05-05 12:03:00,
2013-05-05 08:08:00,52.2,29.2,30.30,East,87,0.0,0.0,41,0.00,,---,0.00,VWS V14.01,2013-05-05 12:08:00,
2013-05-05 08:14:00,52.2,28.6,30.33,ENE,73,0.0,0.0,40,0.00,,---,0.00,VWS V14.01,2013-05-05 12:14:00,
2013-05-05 08:20:00,52.3,28.1,30.33,NNE,18,0.0,0.0,39,0.00,,---,0.00,VWS V14.01,2013-05-05 12:20:00,
2013-05-05 08:25:00,52.7,28.5,30.33,East,85,0.0,0.0,39,0.00,,---,0.00,VWS V14.01,2013-05-05 12:25:00,
2013-05-05 08:31:00,53.1,28.8,30.33,ENE,77,0.0,0.0,39,0.00,,---,0.00,VWS V14.01,2013-05-05 12:31:00,
2013-05-05 08:36:00,53.1,28.1,30.33,North,6,0.0,0.0,38,0.00,,---,0.00,VWS V14.01,2013-05-05 12:36:00,
2013-05-05 08:42:00,53.2,27.0,30.33,NNW,345,0.0,0.0,36,0.00,,---,0.00,VWS V14.01,2013-05-05 12:42:00,
2013-05-05 08:48:00,53.2,27.0,30.33,NNE,29,0.0,0.0,36,0.00,,---,0.00,VWS V14.01,2013-05-05 12:48:00,
2013-05-05 08:53:00,53.6,27.3,30.33,NE,53,0.0,0.0,36,0.00,,---,0.00,VWS V14.01,2013-05-05 12:53:00,
2013-05-05 08:59:00,53.8,26.8,30.33,NNE,21,0.0,0.0,35,0.00,,---,0.00,VWS V14.01,2013-05-05 12:59:00,
2013-05-05 09:04:00,54.1,26.4,30.33,NNE,29,0.0,0.0,34,0.00,,---,0.00,VWS V14.01,2013-05-05 13:04:00,
2013-05-05 09:09:00,54.3,26.6,30.33,North,0,0.0,0.0,34,0.00,,---,0.00,VWS V14.01,2013-05-05 13:09:00,
2013-05-05 09:14:00,54.0,25.5,30.33,ENE,57,0.0,0.0,33,0.00,,---,0.00,VWS V14.01,2013-05-05 13:14:00,
2013-05-05 09:20:00,54.0,25.5,30.33,NNE,21,0.0,0.0,33,0.00,,---,0.00,VWS V14.01,2013-05-05 13:20:00,
2013-05-05 09:26:00,53.4,25.1,30.36,ESE,106,0.0,0.0,33,0.00,,---,0.00,VWS V14.01,2013-05-05 13:26:00,
2013-05-05 09:32:00,53.6,25.2,30.36,ENE,61,0.0,0.0,33,0.00,,---,0.00,VWS V14.01,2013-05-05 13:32:00,
2013-05-05 09:38:00,54.5,26.0,30.36,ESE,105,0.0,0.0,33,0.00,,---,0.00,VWS V14.01,2013-05-05 13:38:00,
2013-05-05 09:43:00,54.5,25.3,30.36,North,1,0.0,0.0,32,0.00,,---,0.00,VWS V14.01,2013-05-05 13:43:00,
2013-05-05 09:49:00,54.5,25.3,30.36,NW,312,0.0,0.0,32,0.00,,---,0.00,VWS V14.01,2013-05-05 13:49:00,
2013-05-05 09:54:00,54.9,24.8,30.36,NE,36,0.0,0.0,31,0.00,,---,0.00,VWS V14.01,2013-05-05 13:54:00,
2013-05-05 10:00:00,55.6,25.5,30.36,ESE,107,0.0,0.0,31,0.00,,---,0.00,VWS V14.01,2013-05-05 14:00:00,
2013-05-05 10:06:00,55.9,25.0,30.36,ENE,57,0.0,0.0,30,0.00,,---,0.00,VWS V14.01,2013-05-05 14:06:00,
2013-05-05 10:11:00,55.9,25.0,30.36,NNE,19,0.0,0.0,30,0.00,,---,0.00,VWS V14.01,2013-05-05 14:11:00,
2013-05-05 10:17:00,56.1,25.1,30.36,East,96,0.0,0.0,30,0.00,,---,0.00,VWS V14.01,2013-05-05 14:17:00,
2013-05-05 10:23:00,56.1,24.3,30.36,North,357,0.0,0.0,29,0.00,,---,0.00,VWS V14.01,2013-05-05 14:23:00,
2013-05-05 10:28:00,55.9,24.2,30.36,NNE,25,0.0,0.0,29,0.00,,---,0.00,VWS V14.01,2013-05-05 14:28:00,
2013-05-05 10:34:00,55.9,25.0,30.36,NNW,337,0.0,0.0,30,0.00,,---,0.00,VWS V14.01,2013-05-05 14:34:00,
2013-05-05 10:40:00,56.5,25.4,30.33,North,353,0.0,0.0,30,0.00,,---,0.00,VWS V14.01,2013-05-05 14:40:00,
2013-05-05 10:46:00,56.7,24.8,30.33,ESE,119,0.0,0.0,29,0.00,,---,0.00,VWS V14.01,2013-05-05 14:46:00,
2013-05-05 10:52:00,56.8,24.9,30.33,ESE,123,0.0,0.0,29,0.00,,---,0.00,VWS V14.01,2013-05-05 14:52:00,
2013-05-05 10:57:00,57.2,24.4,30.36,East,98,0.0,0.0,28,0.00,,---,0.00,VWS V14.01,2013-05-05 14:57:00,
2013-05-05 11:03:00,57.0,24.3,30.36,NNW,343,0.0,0.0,28,0.00,,---,0.00,VWS V14.01,2013-05-05 15:03:00,
2013-05-05 11:09:00,57.2,25.2,30.36,ESE,119,0.0,0.0,29,0.00,,---,0.00,VWS V14.01,2013-05-05 15:09:00,
2013-05-05 11:14:00,56.8,24.1,30.36,North,357,0.0,0.0,28,0.00,,---,0.00,VWS V14.01,2013-05-05 15:14:00,
2013-05-05 11:20:00,55.8,24.0,30.36,North,353,0.0,0.0,29,0.00,,---,0.00,VWS V14.01,2013-05-05 15:20:00,
2013-05-05 11:25:00,56.3,24.5,30.36,NE,50,0.0,0.0,29,0.00,,---,0.00,VWS V14.01,2013-05-05 15:25:00,
2013-05-05 11:31:00,55.6,23.9,30.36,NNE,25,0.0,0.0,29,0.00,,---,0.00,VWS V14.01,2013-05-05 15:31:00,
2013-05-05 11:36:00,55.6,23.9,30.36,NNW,343,0.0,0.0,29,0.00,,---,0.00,VWS V14.01,2013-05-05 15:36:00,
2013-05-05 11:42:00,55.0,24.2,30.36,NE,52,0.0,0.0,30,0.00,,---,0.00,VWS V14.01,2013-05-05 15:42:00,
2013-05-05 11:48:00,56.3,25.3,30.36,North,357,0.0,0.0,30,0.00,,---,0.00,VWS V14.01,2013-05-05 15:48:00,
2013-05-05 11:53:00,57.2,24.4,30.36,NNE,19,0.0,0.0,28,0.00,,---,0.00,VWS V14.01,2013-05-05 15:53:00,
2013-05-05 11:58:00,57.2,24.4,30.33,NE,37,0.0,0.0,28,0.00,,---,0.00,VWS V14.01,2013-05-05 15:58:00,
2013-05-05 12:03:00,56.7,24.0,30.33,East,87,0.0,0.0,28,0.00,,---,0.00,VWS V14.01,2013-05-05 16:03:00,
2013-05-05 12:09:00,57.4,24.6,30.33,NNE,23,0.0,0.0,28,0.00,,---,0.00,VWS V14.01,2013-05-05 16:09:00,
2013-05-05 12:14:00,56.8,24.9,30.33,North,2,0.0,0.0,29,0.00,,---,0.00,VWS V14.01,2013-05-05 16:14:00,
2013-05-05 12:19:00,57.2,25.2,30.33,NNE,24,0.0,0.0,29,0.00,,---,0.00,VWS V14.01,2013-05-05 16:19:00,
2013-05-05 12:24:00,57.2,25.2,30.33,North,9,0.0,0.0,29,0.00,,---,0.00,VWS V14.01,2013-05-05 16:24:00,
2013-05-05 12:30:00,57.4,25.4,30.33,North,1,0.0,0.0,29,0.00,,---,0.00,VWS V14.01,2013-05-05 16:30:00,
2013-05-05 12:35:00,57.4,24.6,30.33,NE,51,0.0,0.0,28,0.00,,---,0.00,VWS V14.01,2013-05-05 16:35:00,
2013-05-05 12:40:00,56.7,24.8,30.33,North,357,0.0,0.0,29,0.00,,---,0.00,VWS V14.01,2013-05-05 16:40:00,
2013-05-05 12:45:00,57.4,24.6,30.33,WNW,288,0.0,0.0,28,0.00,,---,0.00,VWS V14.01,2013-05-05 16:45:00,
2013-05-05 12:51:00,57.4,24.6,30.33,NE,37,0.0,0.0,28,0.00,,---,0.00,VWS V14.01,2013-05-05 16:51:00,
2013-05-05 12:56:00,57.6,24.7,30.33,NNE,28,0.0,0.0,28,0.00,,---,0.00,VWS V14.01,2013-05-05 16:56:00,
2013-05-05 13:02:00,57.7,24.9,30.33,NNE,32,0.0,0.0,28,0.00,,---,0.00,VWS V14.01,2013-05-05 17:02:00,
2013-05-05 13:08:00,57.7,24.9,30.33,NNE,24,0.0,0.0,28,0.00,,---,0.00,VWS V14.01,2013-05-05 17:08:00,
2013-05-05 13:14:00,58.8,25.8,30.36,NNW,345,0.0,0.0,28,0.00,,---,0.00,VWS V14.01,2013-05-05 17:14:00,
2013-05-05 13:20:00,57.4,24.6,30.36,NNE,20,0.0,0.0,28,0.00,,---,0.00,VWS V14.01,2013-05-05 17:20:00,
2013-05-05 13:25:00,57.9,25.0,30.36,NE,34,0.0,0.0,28,0.00,,---,0.00,VWS V14.01,2013-05-05 17:25:00,
2013-05-05 13:30:00,58.5,25.5,30.36,NNE,20,0.0,0.0,28,0.00,,---,0.00,VWS V14.01,2013-05-05 17:30:00,
2013-05-05 13:35:00,58.3,25.3,30.36,NNW,330,0.0,0.0,28,0.00,,---,0.00,VWS V14.01,2013-05-05 17:35:00,
2013-05-05 13:41:00,57.7,24.9,30.33,NE,52,0.0,0.0,28,0.00,,---,0.00,VWS V14.01,2013-05-05 17:41:00,
2013-05-05 13:47:00,57.9,25.0,30.33,NW,326,0.0,0.0,28,0.00,,---,0.00,VWS V14.01,2013-05-05 17:47:00,
2013-05-05 13:52:00,58.3,25.3,30.33,North,2,0.0,0.0,28,0.00,,---,0.00,VWS V14.01,2013-05-05 17:52:00,
2013-05-05 13:58:00,57.9,25.0,30.36,East,96,0.0,0.0,28,0.00,,---,0.00,VWS V14.01,2013-05-05 17:58:00,
2013-05-05 14:04:00,57.6,24.7,30.36,NE,42,0.0,0.0,28,0.00,,---,0.00,VWS V14.01,2013-05-05 18:04:00,
2013-05-05 14:09:00,57.7,24.9,30.36,NE,48,0.0,0.0,28,0.00,,---,0.00,VWS V14.01,2013-05-05 18:09:00,
2013-05-05 14:15:00,56.8,24.9,30.36,NNE,15,0.0,0.0,29,0.00,,---,0.00,VWS V14.01,2013-05-05 18:15:00,
2013-05-05 14:20:00,56.7,24.8,30.36,ENE,68,0.0,0.0,29,0.00,,---,0.00,VWS V14.01,2013-05-05 18:20:00,
2013-05-05 14:26:00,57.2,25.2,30.33,NE,51,0.0,0.0,29,0.00,,---,0.00,VWS V14.01,2013-05-05 18:26:00,
2013-05-05 14:32:00,56.8,24.9,30.33,North,3,0.0,0.0,29,0.00,,---,0.00,VWS V14.01,2013-05-05 18:32:00,
2013-05-05 14:37:00,57.2,25.2,30.33,ENE,59,0.0,0.0,29,0.00,,---,0.00,VWS V14.01,2013-05-05 18:37:00,
2013-05-05 14:43:00,57.0,25.1,30.33,North,1,0.0,0.0,29,0.00,,---,0.00,VWS V14.01,2013-05-05 18:43:00,
2013-05-05 14:48:00,57.7,25.7,30.33,NNE,33,0.0,0.0,29,0.00,,---,0.00,VWS V14.01,2013-05-05 18:48:00,
2013-05-05 14:53:00,58.1,25.2,30.33,NNW,345,0.0,0.0,28,0.00,,---,0.00,VWS V14.01,2013-05-05 18:53:00,
2013-05-05 14:58:00,58.3,25.3,30.33,North,5,0.0,0.0,28,0.00,,---,0.00,VWS V14.01,2013-05-05 18:58:00,
2013-05-05 15:04:00,58.8,25.8,30.33,ENE,75,0.0,0.0,28,0.00,,---,0.00,VWS V14.01,2013-05-05 19:04:00,
2013-05-05 15:09:00,59.2,26.1,30.33,NNE,16,0.0,0.0,28,0.00,,---,0.00,VWS V14.01,2013-05-05 19:09:00,
2013-05-05 15:15:00,59.0,25.1,30.33,NE,46,0.0,0.0,27,0.00,,---,0.00,VWS V14.01,2013-05-05 19:15:00,
2013-05-05 15:21:00,59.0,25.1,30.33,East,86,0.0,0.0,27,0.00,,---,0.00,VWS V14.01,2013-05-05 19:21:00,
2013-05-05 15:27:00,58.8,24.9,30.33,NNE,19,0.0,0.0,27,0.00,,---,0.00,VWS V14.01,2013-05-05 19:27:00,
2013-05-05 15:33:00,58.6,24.8,30.33,North,7,0.0,0.0,27,0.00,,---,0.00,VWS V14.01,2013-05-05 19:33:00,
2013-05-05 15:39:00,59.0,25.1,30.33,ESE,116,0.0,0.0,27,0.00,,---,0.00,VWS V14.01,2013-05-05 19:39:00,
2013-05-05 15:44:00,59.5,25.5,30.33,NE,38,0.0,0.0,27,0.00,,---,0.00,VWS V14.01,2013-05-05 19:44:00,
2013-05-05 15:50:00,59.2,23.4,30.33,North,357,0.0,0.0,25,0.00,,---,0.00,VWS V14.01,2013-05-05 19:50:00,
2013-05-05 15:55:00,58.8,24.9,30.33,ENE,64,0.0,0.0,27,0.00,,---,0.00,VWS V14.01,2013-05-05 19:55:00,
2013-05-05 16:01:00,58.8,24.9,30.33,ENE,67,0.0,0.0,27,0.00,,---,0.00,VWS V14.01,2013-05-05 20:01:00,
2013-05-05 16:07:00,58.8,24.9,30.33,ENE,69,0.0,0.0,27,0.00,,---,0.00,VWS V14.01,2013-05-05 20:07:00,
2013-05-05 16:12:00,58.8,24.9,30.33,ESE,111,0.0,0.0,27,0.00,,---,0.00,VWS V14.01,2013-05-05 20:12:00,
2013-05-05 16:18:00,58.5,24.6,30.33,ENE,65,0.0,0.0,27,0.00,,---,0.00,VWS V14.01,2013-05-05 20:18:00,
2013-05-05 16:24:00,58.5,24.6,30.33,East,92,0.0,0.0,27,0.00,,---,0.00,VWS V14.01,2013-05-05 20:24:00,
2013-05-05 16:29:00,58.3,24.5,30.33,ESE,121,0.0,0.0,27,0.00,,---,0.00,VWS V14.01,2013-05-05 20:29:00,
2013-05-05 16:35:00,58.1,25.2,30.33,ESE,106,0.0,0.0,28,0.00,,---,0.00,VWS V14.01,2013-05-05 20:35:00,
2013-05-05 16:40:00,57.9,25.0,30.33,East,99,0.0,0.0,28,0.00,,---,0.00,VWS V14.01,2013-05-05 20:40:00,
2013-05-05 16:46:00,57.6,24.7,30.33,ENE,72,0.0,0.0,28,0.00,,---,0.00,VWS V14.01,2013-05-05 20:46:00,
2013-05-05 16:51:00,57.2,24.4,30.33,SE,146,0.0,0.0,28,0.00,,---,0.00,VWS V14.01,2013-05-05 20:51:00,
2013-05-05 16:57:00,57.4,24.6,30.33,East,85,0.0,0.0,28,0.00,,---,0.00,VWS V14.01,2013-05-05 20:57:00,
2013-05-05 17:03:00,57.0,24.3,30.33,East,96,0.0,0.0,28,0.00,,---,0.00,VWS V14.01,2013-05-05 21:03:00,
2013-05-05 17:09:00,56.8,24.1,30.33,East,91,0.0,0.0,28,0.00,,---,0.00,VWS V14.01,2013-05-05 21:09:00,
2013-05-05 17:14:00,56.7,24.0,30.33,ESE,114,0.0,0.0,28,0.00,,---,0.00,VWS V14.01,2013-05-05 21:14:00,
2013-05-05 17:20:00,56.5,24.6,30.33,East,101,0.0,0.0,29,0.00,,---,0.00,VWS V14.01,2013-05-05 21:20:00,
2013-05-05 17:25:00,56.1,24.3,30.33,ESE,105,0.0,0.0,29,0.00,,---,0.00,VWS V14.01,2013-05-05 21:25:00,
2013-05-05 17:30:00,55.9,24.2,30.33,East,81,0.0,0.0,29,0.00,,---,0.00,VWS V14.01,2013-05-05 21:30:00,
2013-05-05 17:35:00,55.6,23.9,30.33,East,87,0.0,0.0,29,0.00,,---,0.00,VWS V14.01,2013-05-05 21:35:00,
2013-05-05 17:41:00,55.0,24.2,30.33,North,1,0.0,0.0,30,0.00,,---,0.00,VWS V14.01,2013-05-05 21:41:00,
2013-05-05 17:46:00,55.0,24.2,30.33,ESE,102,0.0,0.0,30,0.00,,---,0.00,VWS V14.01,2013-05-05 21:46:00,
2013-05-05 17:52:00,54.9,24.0,30.33,ESE,106,0.0,0.0,30,0.00,,---,0.00,VWS V14.01,2013-05-05 21:52:00,
2013-05-05 17:57:00,54.5,24.5,30.33,ESE,104,0.0,0.0,31,0.00,,---,0.00,VWS V14.01,2013-05-05 21:57:00,
2013-05-05 18:03:00,54.1,24.2,30.33,ESE,113,0.0,0.0,31,0.00,,---,0.00,VWS V14.01,2013-05-05 22:03:00,
2013-05-05 18:09:00,54.0,24.0,30.33,ESE,114,0.0,0.0,31,0.00,,---,0.00,VWS V14.01,2013-05-05 22:09:00,
2013-05-05 18:14:00,53.8,23.9,30.33,ENE,76,0.0,0.0,31,0.00,,---,0.00,VWS V14.01,2013-05-05 22:14:00,
2013-05-05 18:20:00,53.4,24.3,30.33,SE,127,0.0,0.0,32,0.00,,---,0.00,VWS V14.01,2013-05-05 22:20:00,
2013-05-05 18:26:00,53.1,24.0,30.30,ESE,104,0.0,0.0,32,0.00,,---,0.00,VWS V14.01,2013-05-05 22:26:00,
2013-05-05 18:31:00,52.9,23.9,30.30,East,87,0.0,0.0,32,0.00,,---,0.00,VWS V14.01,2013-05-05 22:31:00,
2013-05-05 18:37:00,52.5,23.5,30.30,ESE,118,0.0,0.0,32,0.00,,---,0.00,VWS V14.01,2013-05-05 22:37:00,
2013-05-05 18:42:00,52.3,24.1,30.30,ESE,106,0.0,0.0,33,0.00,,---,0.00,VWS V14.01,2013-05-05 22:42:00,
2013-05-05 18:48:00,52.2,24.0,30.30,ESE,108,0.0,0.0,33,0.00,,---,0.00,VWS V14.01,2013-05-05 22:48:00,
2013-05-05 18:53:00,52.0,23.8,30.30,ESE,105,0.0,0.0,33,0.00,,---,0.00,VWS V14.01,2013-05-05 22:53:00,
2013-05-05 18:59:00,51.6,23.5,30.30,ESE,102,0.0,0.0,33,0.00,,---,0.00,VWS V14.01,2013-05-05 22:59:00,
2013-05-05 19:05:00,51.4,24.0,30.30,ESE,113,0.0,0.0,34,0.00,,---,0.00,VWS V14.01,2013-05-05 23:05:00,
2013-05-05 19:10:00,51.1,23.7,30.30,East,89,0.0,0.0,34,0.00,,---,0.00,VWS V14.01,2013-05-05 23:10:00,
2013-05-05 19:16:00,50.5,23.2,30.30,East,86,0.0,0.0,34,0.00,,---,0.00,VWS V14.01,2013-05-05 23:16:00,
2013-05-05 19:22:00,50.2,23.6,30.30,ESE,114,0.0,0.0,35,0.00,,---,0.00,VWS V14.01,2013-05-05 23:22:00,
2013-05-05 19:27:00,49.8,24.0,30.30,ESE,111,0.0,0.0,36,0.00,,---,0.00,VWS V14.01,2013-05-05 23:27:00,
2013-05-05 19:33:00,49.5,23.6,30.30,East,81,0.0,0.0,36,0.00,,---,0.00,VWS V14.01,2013-05-05 23:33:00,
2013-05-05 19:38:00,49.3,23.5,30.30,SE,139,0.0,0.0,36,0.00,,---,0.00,VWS V14.01,2013-05-05 23:38:00,
2013-05-05 19:44:00,48.7,23.6,30.30,East,100,0.0,0.0,37,0.00,,---,0.00,VWS V14.01,2013-05-05 23:44:00,
2013-05-05 19:50:00,48.4,23.3,30.30,SE,127,0.0,0.0,37,0.00,,---,0.00,VWS V14.01,2013-05-05 23:50:00,
2013-05-05 19:55:00,48.2,23.8,30.30,ESE,116,0.0,0.0,38,0.00,,---,0.00,VWS V14.01,2013-05-05 23:55:00,
2013-05-05 20:01:00,47.8,24.1,30.30,East,96,0.0,0.0,39,0.00,,---,0.00,VWS V14.01,2013-05-06 00:01:00,
2013-05-05 20:06:00,47.7,23.9,30.30,East,83,0.0,0.0,39,0.00,,---,0.00,VWS V14.01,2013-05-06 00:06:00,
2013-05-05 20:12:00,47.3,24.2,30.30,East,85,0.0,0.0,40,0.00,,---,0.00,VWS V14.01,2013-05-06 00:12:00,
2013-05-05 20:17:00,47.1,24.1,30.30,ESE,108,0.0,0.0,40,0.00,,---,0.00,VWS V14.01,2013-05-06 00:17:00,
2013-05-05 20:23:00,46.9,23.9,30.30,ESE,108,0.0,0.0,40,0.00,,---,0.00,VWS V14.01,2013-05-06 00:23:00,
2013-05-05 20:28:00,46.8,23.7,30.30,ESE,108,0.0,0.0,40,0.00,,---,0.00,VWS V14.01,2013-05-06 00:28:00,
2013-05-05 20:34:00,46.4,23.4,30.30,ESE,108,0.0,0.0,40,0.00,,---,0.00,VWS V14.01,2013-05-06 00:34:00,
2013-05-05 20:40:00,46.2,23.8,30.33,ESE,108,0.0,0.0,41,0.00,,---,0.00,VWS V14.01,2013-05-06 00:40:00,
2013-05-05 20:45:00,45.9,23.5,30.33,ESE,108,0.0,0.0,41,0.00,,---,0.00,VWS V14.01,2013-05-06 00:45:00,
2013-05-05 20:51:00,45.9,23.5,30.33,ESE,108,0.0,0.0,41,0.00,,---,0.00,VWS V14.01,2013-05-06 00:51:00,
2013-05-05 20:57:00,45.9,23.5,30.30,SE,133,0.0,0.0,41,0.00,,---,0.00,VWS V14.01,2013-05-06 00:57:00,
2013-05-05 21:02:00,45.9,23.5,30.30,SSE,149,0.0,0.0,41,0.00,,---,0.00,VWS V14.01,2013-05-06 01:02:00,
2013-05-05 21:08:00,45.9,23.5,30.30,SE,128,0.0,0.0,41,0.00,,---,0.00,VWS V14.01,2013-05-06 01:08:00,
2013-05-05 21:13:00,45.9,23.5,30.30,ESE,103,0.0,0.0,41,0.00,,---,0.00,VWS V14.01,2013-05-06 01:13:00,
2013-05-05 21:19:00,45.7,23.4,30.33,East,99,0.0,0.0,41,0.00,,---,0.00,VWS V14.01,2013-05-06 01:19:00,
2013-05-05 21:25:00,45.7,23.9,30.33,SE,134,0.0,0.0,42,0.00,,---,0.00,VWS V14.01,2013-05-06 01:25:00,
2013-05-05 21:30:00,45.5,23.8,30.33,ESE,118,0.0,0.0,42,0.00,,---,0.00,VWS V14.01,2013-05-06 01:30:00,
2013-05-05 21:36:00,45.3,23.6,30.33,SE,124,0.0,0.0,42,0.00,,---,0.00,VWS V14.01,2013-05-06 01:36:00,
2013-05-05 21:41:00,45.3,23.6,30.33,SE,141,0.0,0.0,42,0.00,,---,0.00,VWS V14.01,2013-05-06 01:41:00,
2013-05-05 21:47:00,45.1,23.4,30.33,SE,141,0.0,0.0,42,0.00,,---,0.00,VWS V14.01,2013-05-06 01:47:00,
2013-05-05 21:52:00,45.1,24.0,30.33,ESE,111,0.0,0.0,43,0.00,,---,0.00,VWS V14.01,2013-05-06 01:52:00,
2013-05-05 21:58:00,45.0,23.8,30.33,SE,127,0.0,0.0,43,0.00,,---,0.00,VWS V14.01,2013-05-06 01:58:00,
2013-05-05 22:04:00,44.8,23.7,30.33,SE,127,0.0,0.0,43,0.00,,---,0.00,VWS V14.01,2013-05-06 02:04:00,
2013-05-05 22:09:00,44.6,23.5,30.33,SE,127,0.0,0.0,43,0.00,,---,0.00,VWS V14.01,2013-05-06 02:09:00,
2013-05-05 22:15:00,44.6,24.0,30.33,SE,127,0.0,0.0,44,0.00,,---,0.00,VWS V14.01,2013-05-06 02:15:00,
2013-05-05 22:21:00,44.4,23.9,30.33,SE,135,0.0,0.0,44,0.00,,---,0.00,VWS V14.01,2013-05-06 02:21:00,
2013-05-05 22:26:00,44.2,23.7,30.33,SE,135,0.0,0.0,44,0.00,,---,0.00,VWS V14.01,2013-05-06 02:26:00,
2013-05-05 22:32:00,44.2,24.3,30.33,SE,137,0.0,0.0,45,0.00,,---,0.00,VWS V14.01,2013-05-06 02:32:00,
2013-05-05 22:37:00,44.1,24.1,30.33,SE,137,0.0,0.0,45,0.00,,---,0.00,VWS V14.01,2013-05-06 02:37:00,
2013-05-05 22:43:00,44.1,24.1,30.30,SE,137,0.0,0.0,45,0.00,,---,0.00,VWS V14.01,2013-05-06 02:43:00,
2013-05-05 22:48:00,44.1,24.6,30.30,SE,137,0.0,0.0,46,0.00,,---,0.00,VWS V14.01,2013-05-06 02:48:00,
2013-05-05 22:54:00,43.9,24.5,30.30,SE,137,0.0,0.0,46,0.00,,---,0.00,VWS V14.01,2013-05-06 02:54:00,
2013-05-05 23:00:00,43.9,24.5,30.30,SE,137,0.0,0.0,46,0.00,,---,0.00,VWS V14.01,2013-05-06 03:00:00,
2013-05-05 23:05:00,43.7,24.3,30.30,SE,137,0.0,0.0,46,0.00,,---,0.00,VWS V14.01,2013-05-06 03:05:00,
2013-05-05 23:11:00,43.7,24.8,30.30,SE,137,0.0,0.0,47,0.00,,---,0.00,VWS V14.01,2013-05-06 03:11:00,
2013-05-05 23:17:00,43.5,24.6,30.30,SE,137,0.0,0.0,47,0.00,,---,0.00,VWS V14.01,2013-05-06 03:17:00,
2013-05-05 23:22:00,43.5,24.6,30.30,SE,137,0.0,0.0,47,0.00,,---,0.00,VWS V14.01,2013-05-06 03:22:00,
2013-05-05 23:28:00,43.5,25.1,30.30,SE,137,0.0,0.0,48,0.00,,---,0.00,VWS V14.01,2013-05-06 03:28:00,
2013-05-05 23:33:00,43.5,25.1,30.30,SSE,164,0.0,0.0,48,0.00,,---,0.00,VWS V14.01,2013-05-06 03:33:00,
2013-05-05 23:39:00,44.1,26.6,30.30,ESE,114,0.0,0.0,50,0.00,,---,0.00,VWS V14.01,2013-05-06 03:39:00,
2013-05-05 23:45:00,44.8,27.3,30.30,SSE,161,0.0,0.0,50,0.00,,---,0.00,VWS V14.01,2013-05-06 03:45:00,
2013-05-05 23:50:00,45.3,28.3,30.30,ESE,115,0.0,0.0,51,0.00,,---,0.00,VWS V14.01,2013-05-06 03:50:00,
2013-05-05 23:56:00,46.0,28.9,30.30,South,179,0.0,0.0,51,0.00,,---,0.00,VWS V14.01,2013-05-06 03:56:00,